FW8448 Weather Reports


Display with metric or nautical units.
time (UTC)temp
F
wind
direction
speed
MPH
gust
MPH
rain 1hr
in
rain 24hr
in
rain mn
in
humidity
%
barometer
mb
20260505041557 64 209 2.0 10.0 0.00 0.00 0.00 70 1003.8
20260505034550 65 190 2.0 11.0 0.00 0.00 0.00 70 1004.1
20260505033100 65 244 3.0 12.0 0.00 0.00 0.00 71 1004.3
20260505031556 65 216 2.0 10.0 0.00 0.00 0.00 69 1004.5
20260505030057 65 211 2.0 9.0 0.00 0.00 0.00 69 1004.5
20260505024555 66 0 2.0 6.0 0.00 0.00 0.00 68 1004.5
20260505023054 66 230 3.0 13.0 0.00 0.00 0.00 67 1004.5
20260505021552 66 204 2.0 9.0 0.00 0.00 0.00 68 1004.4
20260505020050 66 208 1.0 6.0 0.00 0.00 0.00 67 1004.3
20260505014549 66 162 2.0 7.0 0.00 0.00 0.00 67 1004.1
20260505013054 66 218 2.0 9.0 0.00 0.00 0.00 67 1003.7
20260505011552 67 205 1.0 10.0 0.00 0.00 0.00 64 1003.6
20260505004550 69 208 2.0 7.0 0.00 0.00 0.00 60 1003.4
20260505003048 70 211 2.0 14.0 0.00 0.00 0.00 59 1003.5
20260505001552 71 221 4.0 15.0 0.00 0.00 0.00 57 1003.6
20260505000059 72 208 2.0 13.0 0.00 0.00 0.00 55 1003.6
20260504234605 72 178 5.0 9.0 0.00 0.00 0.00 56 1003.7
20260504233050 72 221 5.0 12.0 0.00 0.00 0.00 56 1003.9
20260504231553 72 215 3.0 11.0 0.00 0.00 0.00 61 1004.2
20260504230052 72 0 2.0 11.0 0.00 0.00 0.00 60 1004.3
20260504224554 71 250 4.0 13.0 0.00 0.00 0.00 64 1004.6
20260504223055 71 219 2.0 10.0 0.00 0.00 0.00 62 1004.7
20260504221552 71 212 4.0 11.0 0.00 0.00 0.00 62 1004.7
20260504220104 71 205 4.0 12.0 0.00 0.00 0.00 65 1004.8
20260504214600 69 202 2.0 14.0 0.00 0.00 0.00 69 1004.7
20260504213111 68 212 3.0 10.0 0.00 0.00 0.00 72 1005.0
20260504211556 66 190 3.0 7.0 0.00 0.00 0.00 75 1005.0
20260504210105 65 175 4.0 11.0 0.00 0.00 0.00 75 1005.3
20260504204602 65 205 4.0 11.0 0.00 0.00 0.00 76 1005.3
20260504203058 66 198 5.0 22.0 0.00 0.00 0.00 70 1004.8
20260504201557 67 219 4.0 11.0 0.00 0.00 0.00 66 1005.6
20260504200054 67 201 5.0 17.0 0.00 0.00 0.00 66 1005.4
20260504194556 68 216 5.0 12.0 0.00 0.00 0.00 61 1005.9
20260504193103 68 253 4.0 12.0 0.00 0.00 0.00 67 1006.0
20260504191548 68 240 6.0 24.0 0.00 0.00 0.00 66 1006.9
20260504190059 68 220 5.0 17.0 0.00 0.00 0.00 68 1007.0
20260504184547 68 247 7.0 19.0 0.00 0.00 0.00 67 1007.2
20260504183058 69 209 4.0 11.0 0.00 0.00 0.00 67 1006.8
20260504181552 71 221 3.0 15.0 0.00 0.00 0.00 67 1006.4
20260504180130 70 239 3.0 10.0 0.00 0.00 0.00 68 1006.4
20260504174556 69 149 4.0 12.0 0.00 0.00 0.00 71 1006.5
20260504173058 69 227 6.0 19.0 0.00 0.00 0.00 69 1006.8
20260504171554 70 213 5.0 15.0 0.00 0.00 0.00 67 1006.7
20260504120104 53 200 1.0 6.0 0.00 0.00 0.00 81 1008.0
20260504081552 49 0 0.0 3.0 0.00 0.00 0.00 79 1009.0
20260504080111 50 216 1.0 4.0 0.00 0.00 0.00 78 1009.1
20260504060103 52 217 1.0 8.0 0.00 0.00 0.00 74 1010.0
20260504050113 52 214 1.0 9.0 0.00 0.00 0.00 74 1010.6